Probability
0 0 0 0 0 0 0 0 0 0 0 0 0 0 0 0 0 0 0 0 0 0 0 0 0 0 0 3 6 6 6 6 10 6 3 0 0 0
0 0 0 0 0 0 0 0 0 0 0 0 0 0 0 0 0 0 0 0 0 0 0 0 0 0 0 0 0 0 0 0 0 6 3 0 0 0
0 0 0 0 0 0 0 0 0 0 0 0 0 0 0 0 0 0 0 0 0 0 0 0 0 0 0 0 0 0 0 0 0 0 3 3 0 0
0 0 0 0 0 0 0 0 0 0 0 0 0 0 0 0 0 0 0 0 0 0 0 0 0 0 0 0 0 0 0 0 0 0 3 3 0 0
0 0 0 0 0 0 0 0 0 0 0 0 0 0 0 0 0 0 0 0 0 0 0 0 0 0 0 0 0 0 0 0 0 0 0 0 0 0
0 0 0 0 0 0 0 0 0 0 0 0 0 0 0 0 0 0 0 0 0 0 0 0 0 0 0 0 0 0 0 0 0 0 0 0 0 0
0 0 0 0 0 0 0 0 0 0 0 0 0 0 0 0 0 0 0 0 0 0 0 0 0 0 0 0 0 0 0 0 0 0 0 0 0 0
0 0 0 0 0 0 0 0 0 0 0 0 0 0 0 0 0 0 0 0 0 0 0 0 0 0 0 0 0 0 0 0 0 0 0 0 0 0
0 0 0 0 0 0 0 0 0 0 0 0 0 0 0 0 0 0 0 0 0 0 0 0 0 0 0 0 0 0 0 0 0 0 0 0 0 0
0 0 0 0 0 0 0 0 0 0 0 0 0 0 0 0 0 0 0 0 0 0 0 0 0 0 0 0 0 0 0 0 0 0 0 0 0 0
0 0 0 0 0 0 0 0 0 0 0 0 0 0 0 0 0 0 0 0 0 0 0 0 0 0 0 0 0 0 0 0 0 0 0 0 0 0
0 0 0 0 0 0 0 0 0 0 0 0 0 0 0 0 0 0 0 0 0 0 0 0 0 0 0 0 0 0 0 0 0 0 0 0 0 0
0 0 0 0 0 0 0 0 0 0 0 0 0 0 0 0 0 0 0 0 0 0 0 0 0 0 0 0 0 0 0 0 0 0 0 0 0 0
0 0 0 0 0 0 0 0 0 0 0 0 0 0 0 0 0 0 0 0 0 0 0 0 0 0 0 0 0 0 0 0 0 0 0 0 0 0
0 0 0 0 0 0 0 0 0 0 0 0 0 0 0 0 0 0 0 0 0 0 0 0 0 0 0 0 0 0 0 0 0 0 0 0 0 0
0 0 0 0 0 0 0 0 0 0 0 0 0 0 0 0 0 0 0 0 0 0 0 0 0 0 0 0 0 0 0 0 0 0 0 0 0 0
0 0 0 0 0 0 0 0 0 0 0 0 0 0 0 0 0 0 0 0 0 0 0 0 0 0 0 0 0 0 0 0 0 0 0 0 0 0
0 0 0 0 0 0 0 0 0 0 0 0 0 0 0 0 0 0 0 0 0 0 0 0 0 0 0 0 0 0 0 0 0 0 0 0 0 0
0 0 0 0 0 0 0 0 0 0 0 0 0 0 0 0 0 0 0 0 0 0 0 0 0 0 0 0 0 0 0 0 0 0 0 0 0 0
0 0 0 0 0 0 0 0 0 0 0 0 0 0 0 0 0 0 0 0 0 0 0 0 0 0 0 0 0 0 0 0 0 0 0 0 0 0
0 0 0 0 0 0 0 0 0 0 0 0 0 0 0 0 0 0 0 0 0 0 0 0 0 0 0 0 0 0 0 0 0 0 0 0 0 0
0 0 0 0 0 0 0 0 0 0 0 0 0 0 0 0 0 0 0 0 0 0 0 0 0 0 0 0 0 0 0 0 0 0 0 0 0 0
0 0 0 0 0 0 0 0 0 0 0 0 0 0 0 0 0 0 0 0 0 0 0 0 0 0 0 0 0 0 0 0 0 0 0 0 0 0
Height
5819 5821 5823 5824 5826 5828 5829 5831 5833 5834 5835 5837 5838 5839 5840 5841 5841 5842 5843 5843 5843 5843 5843 5842 5842 5841 5840 5839 5839 5838 5838 5838 5838 5838 5839 5839 5839 5839
5810 5812 5813 5815 5818 5819 5821 5822 5824 5825 5827 5829 5830 5832 5832 5834 5834 5835 5836 5837 5837 5837 5837 5836 5835 5834 5834 5833 5832 5832 5832 5831 5831 5831 5831 5831 5832 5832
5801 5803 5805 5807 5809 5811 5812 5813 5815 5817 5819 5821 5822 5824 5825 5827 5828 5829 5830 5830 5831 5831 5830 5830 5829 5828 5827 5826 5825 5825 5825 5825 5824 5824 5824 5824 5824 5824
5793 5795 5797 5799 5801 5803 5804 5806 5807 5809 5811 5813 5815 5817 5819 5820 5821 5823 5824 5824 5825 5825 5824 5823 5823 5822 5821 5820 5819 5819 5818 5818 5817 5816 5816 5816 5816 5816
5786 5788 5790 5792 5793 5795 5797 5799 5801 5802 5805 5807 5809 5811 5813 5814 5816 5817 5818 5818 5819 5818 5818 5817 5816 5815 5814 5814 5813 5812 5811 5811 5810 5810 5809 5809 5808 5808
5779 5781 5783 5785 5787 5789 5791 5793 5795 5797 5799 5801 5804 5806 5807 5809 5810 5811 5812 5813 5813 5812 5812 5811 5810 5809 5808 5807 5807 5805 5805 5804 5803 5802 5802 5801 5801 5800
5774 5776 5778 5780 5782 5784 5786 5788 5791 5793 5795 5797 5799 5801 5803 5804 5805 5806 5807 5807 5807 5807 5806 5805 5805 5804 5803 5801 5800 5799 5798 5797 5796 5796 5795 5794 5793 5792
5768 5770 5772 5775 5777 5779 5782 5784 5786 5789 5791 5793 5795 5797 5798 5799 5800 5801 5801 5802 5802 5801 5801 5800 5799 5798 5797 5796 5794 5793 5792 5790 5789 5789 5788 5787 5786 5785
5763 5765 5767 5770 5772 5775 5777 5780 5783 5785 5787 5789 5791 5793 5794 5795 5795 5796 5796 5796 5796 5796 5795 5795 5794 5793 5792 5790 5789 5787 5786 5784 5783 5782 5780 5779 5778 5776
5758 5760 5763 5765 5768 5771 5773 5776 5778 5781 5783 5785 5787 5788 5789 5790 5791 5792 5791 5791 5791 5791 5790 5790 5789 5788 5787 5785 5784 5782 5780 5778 5777 5775 5773 5771 5770 5768
5752 5755 5758 5760 5763 5766 5769 5772 5774 5777 5779 5781 5783 5784 5785 5786 5787 5787 5787 5787 5787 5787 5786 5785 5784 5783 5782 5781 5779 5777 5775 5773 5771 5769 5767 5764 5761 5759
5746 5749 5752 5755 5758 5761 5765 5767 5770 5773 5775 5777 5779 5780 5781 5782 5783 5783 5784 5784 5783 5783 5782 5782 5780 5779 5778 5776 5775 5773 5771 5768 5766 5763 5760 5757 5754 5750
5741 5744 5747 5750 5754 5757 5760 5763 5766 5769 5771 5773 5775 5777 5778 5779 5780 5780 5781 5781 5781 5780 5780 5779 5778 5776 5774 5773 5771 5769 5767 5764 5761 5758 5754 5750 5747 5743
5738 5741 5744 5747 5750 5754 5757 5760 5763 5765 5768 5770 5772 5774 5775 5776 5777 5778 5778 5779 5778 5778 5778 5777 5776 5774 5772 5771 5768 5766 5763 5760 5756 5753 5749 5745 5741 5736
5737 5740 5743 5746 5749 5752 5755 5758 5760 5763 5765 5768 5770 5772 5773 5774 5775 5776 5777 5777 5777 5777 5776 5775 5774 5773 5771 5769 5766 5763 5760 5756 5753 5749 5745 5740 5736 5731
5739 5741 5744 5746 5749 5752 5754 5757 5759 5762 5764 5767 5768 5770 5772 5773 5774 5775 5776 5776 5776 5776 5775 5774 5773 5772 5770 5767 5765 5762 5758 5755 5751 5746 5742 5738 5733 5728
5742 5744 5746 5748 5751 5753 5755 5758 5760 5762 5765 5766 5768 5770 5771 5773 5774 5775 5775 5776 5776 5775 5775 5774 5772 5771 5769 5767 5764 5760 5757 5753 5749 5745 5741 5737 5732 5727
5747 5748 5750 5751 5753 5755 5757 5759 5762 5764 5765 5767 5769 5770 5772 5773 5774 5775 5776 5776 5776 5775 5775 5774 5772 5771 5769 5766 5763 5760 5757 5753 5749 5745 5741 5736 5732 5727
5753 5754 5755 5756 5757 5759 5760 5762 5764 5766 5767 5769 5770 5772 5773 5774 5775 5776 5776 5776 5776 5775 5775 5773 5772 5770 5768 5766 5763 5760 5757 5753 5749 5745 5741 5737 5732 5727
5760 5760 5760 5761 5762 5763 5764 5766 5767 5769 5770 5771 5772 5773 5774 5775 5776 5777 5777 5777 5776 5776 5775 5774 5772 5770 5768 5766 5763 5760 5757 5753 5749 5745 5741 5737 5732 5727
5767 5766 5767 5767 5767 5768 5769 5770 5771 5772 5773 5774 5775 5776 5776 5777 5777 5778 5778 5778 5777 5776 5775 5774 5772 5770 5768 5766 5763 5760 5756 5753 5749 5745 5741 5736 5732 5727
5773 5773 5772 5772 5773 5773 5774 5774 5775 5775 5776 5777 5778 5778 5779 5779 5779 5779 5779 5779 5778 5777 5776 5774 5772 5770 5768 5765 5762 5759 5756 5752 5748 5744 5740 5735 5731 5725
5779 5778 5778 5778 5778 5778 5778 5778 5779 5779 5780 5780 5780 5781 5781 5781 5781 5781 5780 5780 5779 5777 5776 5774 5772 5770 5767 5764 5761 5758 5755 5751 5747 5743 5739 5734 5729 5724
Wind_Speed
32 33 34 33 32 32 32 32 33 32 32 31 31 31 30 30 29 28 27 27 26 25 26 26 26 25 25 25 26 26 26 27 27 28 29 30 30 31
34 34 33 33 32 33 33 33 33 32 31 31 31 31 30 29 28 27 26 25 25 25 26 26 26 25 24 25 24 25 25 26 27 28 28 29 30 31
32 31 31 31 30 30 30 31 31 30 30 29 29 28 27 26 25 24 25 25 25 25 25 25 25 25 25 24 24 24 25 26 26 27 28 29 29 31
28 28 29 28 28 29 29 29 29 28 28 27 25 25 24 24 23 24 24 25 25 25 24 24 24 24 24 24 24 24 25 26 26 26 27 28 29 29
25 25 25 25 25 24 24 24 24 24 23 23 22 22 21 21 22 23 23 24 24 23 23 23 23 23 23 24 24 24 24 25 26 27 28 28 28 28
22 21 21 20 20 20 20 20 20 19 18 18 18 18 18 19 20 20 21 21 22 22 22 22 22 22 22 22 23 24 25 25 25 26 26 27 28 29
18 18 17 17 18 18 17 17 16 15 14 14 15 15 16 17 17 18 19 20 21 21 21 21 21 21 21 22 23 24 25 26 25 26 27 27 27 28
15 14 15 15 15 15 14 14 13 13 13 14 14 15 15 16 17 18 18 19 20 20 20 19 20 21 21 21 22 23 22 23 25 26 26 26 27 28
17 16 16 15 14 14 13 13 12 12 12 12 13 13 14 14 15 16 17 18 18 19 19 19 19 20 20 21 20 20 21 22 23 25 25 26 28 31
16 17 16 16 16 15 14 13 13 13 13 13 13 13 13 14 14 15 15 16 16 17 17 17 18 18 18 19 19 19 20 21 21 23 24 26 28 30
15 15 16 15 15 14 14 14 13 13 13 13 13 13 13 13 13 13 13 13 14 14 14 15 16 16 17 17 18 18 19 19 20 21 23 25 27 29
14 14 15 15 15 14 14 14 13 13 13 13 12 12 12 12 11 11 11 10 10 10 11 12 13 13 13 14 15 16 17 18 19 20 22 24 26 28
12 12 12 13 13 13 13 13 12 12 12 12 11 10 9 9 8 8 7 7 7 8 8 9 10 10 11 12 13 14 15 17 18 20 22 23 25 26
8 9 10 10 11 11 11 11 11 11 11 11 9 8 7 6 5 5 4 4 5 5 6 7 8 9 9 10 12 13 15 17 18 20 21 22 23 24
6 8 8 9 10 10 10 10 10 9 9 8 8 7 6 4 3 2 2 2 2 3 5 6 7 8 10 11 13 14 16 17 19 20 21 22 22 23
9 9 10 10 10 10 9 9 8 8 7 7 6 5 4 3 3 2 1 1 2 4 5 6 8 9 10 12 13 14 16 17 19 20 21 22 22 23
12 12 11 11 10 10 10 9 9 8 8 7 7 6 6 5 5 4 3 3 4 4 5 7 8 9 10 12 14 15 16 18 19 21 22 23 24 25
15 15 14 14 13 12 12 11 10 10 9 9 8 8 7 7 6 6 5 4 4 4 5 7 8 9 11 12 14 15 17 18 20 21 23 24 25 26
18 17 17 16 15 14 13 13 12 12 11 10 10 9 9 9 7 6 5 4 4 5 6 7 8 10 11 13 14 16 17 19 20 21 23 24 25 26
20 19 18 17 17 16 15 14 14 13 13 12 11 10 9 8 7 6 5 5 5 6 7 8 9 10 12 13 15 16 18 19 20 21 22 24 25 26
20 19 19 18 17 16 16 15 14 13 13 12 12 10 9 8 7 6 6 6 6 7 8 9 10 12 13 14 16 17 18 19 20 21 23 24 25 26
19 18 18 17 17 16 16 15 15 14 13 12 11 10 10 9 8 8 7 7 8 8 9 10 11 13 14 15 16 18 19 20 21 22 23 24 25 26
17 17 16 16 16 15 15 14 14 14 13 12 11 11 10 9 9 9 8 8 8 9 10 11 12 13 15 16 17 18 20 21 22 23 24 24 25 26
Wind_Direction
258 255 254 254 256 256 255 256 256 256 256 256 258 258 261 264 265 266 267 269 273 277 277 278 278 278 279 278 276 275 274 273 272 271 269 268 266 265
259 257 255 254 257 257 257 258 258 258 257 256 257 259 260 262 262 263 266 268 272 276 277 277 277 278 279 279 277 275 273 274 274 273 271 270 269 267
254 256 255 256 258 256 256 256 255 257 257 257 257 258 257 257 259 261 264 267 271 274 277 278 277 277 278 279 276 274 274 275 275 274 272 271 270 268
253 256 255 256 256 254 257 257 256 256 255 255 255 255 256 255 257 260 263 267 271 274 277 278 278 278 279 278 277 275 276 276 276 274 273 272 271 271
253 253 253 254 252 252 253 254 253 253 252 252 253 254 254 257 259 262 265 269 273 276 278 278 279 280 280 278 277 276 277 277 277 275 273 274 273 272
248 247 247 247 248 246 246 247 248 248 248 248 249 252 255 258 261 264 266 270 273 276 279 279 280 281 280 279 278 277 276 277 277 275 274 274 273 273
241 241 241 243 243 240 240 242 242 243 245 246 249 253 257 259 261 264 268 270 273 276 278 280 281 281 282 283 282 280 278 276 276 276 274 274 276 275
237 238 239 239 239 238 235 235 236 240 243 245 249 253 256 259 263 265 269 271 273 275 278 280 282 284 287 287 286 284 283 278 275 275 273 273 274 276
242 240 239 237 236 234 231 231 233 235 239 244 248 252 256 260 263 266 269 271 273 274 276 279 283 286 287 289 289 287 286 285 281 279 278 277 277 278
244 241 239 237 236 235 235 234 235 238 240 243 247 253 257 260 263 266 270 273 276 278 280 282 284 288 291 293 294 294 292 292 291 289 288 286 285 284
244 239 236 232 229 229 230 233 236 238 239 242 247 251 255 260 264 269 273 276 280 285 287 289 291 292 294 297 299 301 303 304 302 300 299 297 294 291
243 238 233 229 228 225 227 229 231 235 238 240 243 247 251 257 263 270 275 280 286 292 297 300 300 299 300 302 306 308 310 311 312 311 310 308 303 299
237 232 228 221 218 219 220 221 225 227 230 235 239 242 248 254 261 269 275 281 290 299 307 312 314 315 316 317 317 319 321 323 323 322 320 317 314 311
214 213 212 212 208 206 207 210 214 218 223 227 230 233 241 249 256 262 269 285 301 315 326 333 335 337 338 336 334 333 334 335 335 334 331 329 327 324
160 170 174 178 180 183 188 194 199 204 209 212 214 217 221 226 231 232 255 299 326 344 352 353 352 352 352 350 348 349 349 349 348 347 346 344 342 340
123 136 145 150 152 157 164 170 174 176 175 177 178 181 182 178 172 163 135 68 40 23 10 6 5 2 0 360 0 1 0 360 359 359 359 358 357 356
104 114 122 130 133 136 141 147 149 149 150 150 148 147 144 138 133 123 105 80 55 32 21 17 14 10 9 8 8 9 9 8 8 9 9 8 8 7
96 103 108 114 119 122 125 127 129 132 133 134 134 132 130 127 121 111 98 79 53 33 24 18 14 13 13 13 14 13 13 13 12 12 12 12 12 11
90 96 101 104 106 111 116 118 120 121 123 124 123 122 120 118 113 103 88 70 48 35 28 23 20 19 18 16 15 15 14 13 13 13 12 12 12 13
86 91 95 98 101 104 108 111 113 114 115 115 115 115 114 110 103 93 81 69 56 45 38 32 26 21 17 15 13 12 11 10 9 9 8 9 9 9
85 88 91 94 96 99 102 105 108 110 110 110 108 106 104 100 94 87 78 69 59 49 40 33 25 19 14 12 10 8 5 4 3 2 3 3 3 4
83 86 89 92 94 97 99 100 102 104 106 105 102 99 96 93 88 82 74 65 55 44 35 27 20 14 10 7 4 2 360 359 358 358 358 358 359 359
81 84 87 90 92 93 95 97 99 100 101 100 97 94 91 86 80 74 66 54 43 33 24 17 12 8 4 2 360 359 358 358 357 357 357 356 356 356